TimeMST,TemperatureF,Dew PointF,Humidity,Sea Level PressureIn,VisibilityMPH,Wind Direction,Wind SpeedMPH,Gust SpeedMPH,PrecipitationIn,Events,Conditions,WindDirDegrees,DateUTC
12:54 AM,27.0,16.0,63,29.92,10.0,ESE,3.5,-,N/A,,Clear,110,2012-12-07 07:54:00
1:54 AM,19.9,12.0,71,29.93,10.0,NNE,4.6,-,N/A,,Clear,30,2012-12-07 08:54:00
2:54 AM,21.0,12.0,68,29.92,10.0,NE,3.5,-,N/A,,Clear,40,2012-12-07 09:54:00
3:54 AM,21.0,12.9,71,29.91,10.0,North,5.8,-,N/A,,Clear,10,2012-12-07 10:54:00
4:54 AM,21.9,14.0,72,29.92,10.0,Variable,5.8,-,N/A,,Clear,0,2012-12-07 11:54:00
5:54 AM,24.1,14.0,65,29.93,10.0,North,4.6,-,N/A,,Clear,10,2012-12-07 12:54:00
6:54 AM,27.0,15.1,61,29.92,10.0,WNW,3.5,-,N/A,,Partly Cloudy,300,2012-12-07 13:54:00
7:54 AM,36.0,16.0,44,29.88,10.0,NW,5.8,-,N/A,,Partly Cloudy,320,2012-12-07 14:54:00
8:54 AM,41.0,18.0,40,29.88,10.0,West,4.6,-,N/A,,Partly Cloudy,270,2012-12-07 15:54:00
9:54 AM,46.0,16.0,30,29.88,10.0,Calm,Calm,-,N/A,,Partly Cloudy,0,2012-12-07 16:54:00
10:54 AM,51.1,15.1,24,29.84,10.0,West,5.8,-,N/A,,Partly Cloudy,260,2012-12-07 17:54:00
11:54 AM,51.1,14.0,23,29.84,10.0,South,5.8,-,N/A,,Scattered Clouds,190,2012-12-07 18:54:00
12:54 PM,52.0,15.1,23,29.81,10.0,ESE,10.4,-,N/A,,Scattered Clouds,120,2012-12-07 19:54:00
1:54 PM,52.0,14.0,22,29.84,10.0,SE,10.4,-,N/A,,Scattered Clouds,140,2012-12-07 20:54:00
2:54 PM,50.0,14.0,24,29.85,10.0,SE,6.9,-,N/A,,Scattered Clouds,130,2012-12-07 21:54:00
3:54 PM,46.9,14.0,27,29.89,10.0,SE,9.2,-,N/A,,Scattered Clouds,140,2012-12-07 22:54:00
4:35 PM,42.8,19.4,39,29.87,10.0,ENE,16.1,-,N/A,,Scattered Clouds,70,2012-12-07 23:35:00
4:54 PM,41.0,19.9,43,29.96,10.0,ENE,12.7,-,N/A,,Scattered Clouds,70,2012-12-07 23:54:00
5:54 PM,36.0,19.0,50,30.02,10.0,East,10.4,-,N/A,,Scattered Clouds,80,2012-12-08 00:54:00
6:54 PM,33.1,18.0,54,30.04,10.0,East,10.4,-,N/A,,Partly Cloudy,90,2012-12-08 01:54:00
7:54 PM,32.0,18.0,56,30.03,10.0,South,3.5,-,N/A,,Scattered Clouds,190,2012-12-08 02:54:00
8:54 PM,28.0,17.1,63,30.02,10.0,SSE,9.2,-,N/A,,Partly Cloudy,160,2012-12-08 03:54:00
9:54 PM,28.0,17.1,63,29.99,10.0,SE,8.1,-,N/A,,Partly Cloudy,130,2012-12-08 04:54:00
10:54 PM,30.0,18.0,61,29.95,10.0,South,16.1,-,N/A,,Scattered Clouds,180,2012-12-08 05:54:00
11:54 PM,28.9,17.1,61,29.94,10.0,SSE,13.8,-,N/A,,Scattered Clouds,160,2012-12-08 06:54:00